EHI
0 0 0 0 0 0 0 0 0 0 0 0 0 0 0 0 0 0 0 1 1 1 0 0 0 0 0 0 0 0 0 0 0 0 0 0 0 0 0 0 0 0 0
0 0 0 0 0 0 0 0 0 0 0 0 0 0 0 0 0 0 0 0 1 1 0 0 0 0 0 0 0 0 0 0 0 0 0 0 0 0 0 0 0 0 0
0 0 0 0 0 0 0 0 0 0 0 0 0 0 0 0 0 0 0 0 0 0 0 0 0 0 0 0 0 1 0 0 0 0 0 0 0 0 0 0 0 0 0
1 0 0 0 0 0 0 0 0 0 0 0 0 0 0 0 0 0 0 0 0 0 0 0 0 0 0 0 0 0 0 0 0 0 0 0 0 0 0 0 0 0 0
1 0 0 0 0 0 0 0 0 0 0 0 0 0 0 0 0 0 0 0 0 0 0 0 0 1 1 1 1 0 0 0 0 0 0 0 0 0 0 0 0 0 0
2 1 1 0 0 0 0 0 0 0 0 0 0 0 0 0 0 0 0 0 0 0 0 0 0 0 1 1 1 0 0 0 0 0 0 0 0 0 0 0 0 0 0
6 4 2 1 0 0 0 0 0 0 0 0 0 0 0 0 0 0 0 0 0 0 0 0 0 0 0 1 1 0 0 0 1 2 1 0 0 0 0 0 0 0 0
10 7 3 1 0 0 0 0 0 0 0 0 0 0 0 0 0 0 0 0 0 0 0 0 0 0 0 0 0 0 0 0 1 3 2 1 0 0 0 0 0 0 0
9 7 4 2 1 0 0 0 0 0 0 0 0 0 0 0 0 0 0 0 0 0 0 0 0 0 0 0 0 0 0 0 0 1 2 1 0 0 0 0 0 0 0
7 6 4 3 2 1 0 0 0 0 0 0 0 0 0 0 0 0 0 0 0 0 0 0 0 0 0 0 0 0 0 0 0 0 1 1 0 0 0 0 0 0 0
6 6 4 3 3 2 1 0 0 0 0 0 0 0 0 0 0 0 0 0 0 0 0 0 0 0 0 0 0 0 0 0 0 0 0 0 0 0 0 0 0 0 0
6 6 5 4 3 3 1 0 0 0 0 0 0 0 0 0 0 0 0 0 0 0 0 0 0 0 0 0 0 0 0 0 0 0 0 0 0 0 0 0 0 0 0
7 7 6 5 4 3 2 1 0 0 0 0 0 0 0 0 0 0 0 0 0 0 0 0 0 0 0 1 0 0 0 0 0 0 0 0 0 0 0 0 0 0 0
10 8 8 7 6 5 4 2 0 0 0 0 0 0 0 0 0 0 0 0 0 0 0 0 0 0 0 0 0 0 0 0 0 0 0 0 0 0 0 0 0 0 0
11 9 8 7 7 6 5 3 1 1 0 0 0 0 0 0 0 0 0 0 0 0 0 0 0 0 0 0 0 0 0 0 0 0 0 0 0 0 0 0 0 0 0
11 10 8 7 7 7 4 2 2 2 1 0 0 0 0 0 0 0 0 0 0 0 0 0 0 0 0 0 0 0 0 0 0 0 0 0 0 0 0 0 0 0 0
11 10 10 9 7 5 3 1 1 2 2 1 0 0 0 0 0 0 0 0 0 0 0 0 0 0 0 0 0 0 0 0 0 0 0 0 0 0 0 0 0 0 0
10 9 9 10 8 5 3 2 2 3 3 2 1 1 0 0 0 0 0 0 0 0 0 0 0 0 0 0 0 0 0 0 0 0 0 0 0 0 0 0 0 0 0
8 7 8 9 8 5 3 3 3 3 4 3 3 2 1 1 1 1 1 0 0 0 0 0 0 0 0 0 0 0 0 0 0 0 0 0 0 0 0 0 0 0 0
7 7 7 9 8 5 3 4 4 4 4 4 3 3 2 2 2 2 2 1 0 0 0 0 0 0 0 0 0 0 0 0 0 0 0 0 0 0 0 0 0 0 0
7 7 8 9 8 5 4 5 5 6 5 4 3 3 3 3 3 3 2 1 0 0 0 0 0 0 0 0 0 0 0 0 0 0 0 0 0 0 0 0 0 0 0
9 9 10 9 7 6 4 4 5 6 6 4 3 4 4 4 3 2 1 0 0 0 0 0 0 0 0 0 0 0 0 0 0 0 0 0 0 0 0 0 0 0 0
12 12 11 10 8 6 5 4 4 5 5 4 4 5 5 4 3 2 0 0 0 0 0 0 0 0 0 0 0 0 0 0 0 0 0 0 0 0 0 0 0 0 0
12 12 12 12 9 6 4 3 2 4 5 4 3 4 4 3 2 1 0 0 0 0 0 0 0 0 0 0 0 0 0 0 0 0 0 0 0 0 0 0 0 0 0
11 10 11 12 8 5 4 2 1 3 4 3 3 2 2 2 1 0 0 0 0 0 0 0 0 0 0 0 0 0 0 0 0 0 0 0 0 0 0 0 0 0 0
10 10 10 9 7 6 4 1 1 2 3 3 2 1 1 1 0 0 0 0 0 0 0 0 0 0 0 0 0 0 0 0 0 0 0 0 0 0 0 0 0 0 0
Wind_Speed
4 3 2 2 2 1 2 2 1 1 1 2 3 5 5 5 4 3 3 10 10 10 11 10 10 9 9 9 8 8 8 8 8 7 7 7 7 7 7 7 7 7 6
4 4 3 2 2 2 2 2 2 1 1 2 3 5 5 5 5 4 3 6 10 10 10 10 10 9 9 9 9 8 8 8 8 7 7 7 7 6 6 7 7 6 6
5 4 3 2 2 2 2 2 1 1 1 2 3 4 4 5 5 5 4 3 4 8 10 10 10 10 9 9 9 9 8 8 8 8 7 7 6 6 6 6 6 6 6
6 5 3 3 2 2 2 2 2 2 1 2 2 2 3 3 5 4 4 4 3 3 6 10 9 9 9 9 9 9 9 8 8 8 8 7 7 6 6 7 7 7 6
5 4 3 3 2 2 2 2 2 2 2 1 1 1 2 3 4 5 4 5 4 4 3 6 9 9 9 10 9 9 9 9 9 9 9 8 8 7 7 7 7 7 7
5 4 3 3 3 2 2 2 2 1 2 2 1 1 0 2 2 3 5 4 4 5 5 4 4 5 8 8 8 9 10 9 9 9 9 9 9 8 7 7 7 7 7
5 4 3 3 3 3 3 3 2 2 1 1 2 2 2 1 1 2 3 3 4 5 5 5 3 3 3 7 7 8 9 9 9 9 9 9 9 8 8 8 8 8 8
6 5 4 3 3 3 3 2 3 2 1 1 3 2 2 3 2 1 2 3 4 3 4 6 4 4 3 2 5 8 9 9 9 9 9 9 8 8 8 8 8 8 8
5 5 5 4 4 3 3 3 3 4 2 0 2 3 3 2 2 2 2 2 3 3 3 4 5 5 5 4 4 7 9 8 8 9 9 9 9 8 8 8 8 8 8
5 5 5 5 4 3 3 3 3 3 3 2 1 1 2 4 3 1 2 1 2 3 4 4 5 5 5 4 5 7 8 8 8 9 8 8 8 8 8 9 9 9 9
4 5 5 5 4 3 4 3 3 3 3 3 2 1 1 1 2 2 2 2 2 3 3 4 4 4 5 5 4 7 10 10 9 9 9 8 8 8 8 9 10 10 10
4 5 5 5 5 4 4 4 4 4 3 3 2 2 3 2 2 3 3 2 3 3 3 3 4 4 5 5 7 10 11 11 10 9 9 9 9 9 9 9 10 10 10
4 6 6 5 5 5 5 4 4 4 4 4 3 2 2 3 3 3 3 2 2 2 2 2 3 4 5 4 5 10 11 11 10 10 9 9 9 9 9 9 10 10 10
5 6 6 6 6 5 5 4 3 4 3 3 4 3 2 2 2 3 3 3 1 1 1 3 2 3 4 4 6 9 6 11 11 11 10 10 9 9 9 9 9 9 9
5 6 6 6 6 6 5 5 3 4 4 3 3 3 2 2 2 2 3 3 4 2 3 3 2 3 3 3 6 6 5 9 12 11 11 11 10 10 10 10 10 9 9
6 6 7 6 6 6 5 5 3 3 4 3 3 3 2 2 1 1 2 2 3 4 3 3 3 3 3 4 6 5 6 9 11 12 12 11 11 11 10 11 10 10 10
7 7 7 7 7 6 6 5 5 4 5 4 3 3 4 3 2 1 1 1 2 3 3 3 2 1 2 3 3 3 4 4 5 11 12 12 12 12 11 11 11 11 10
7 7 7 7 7 7 6 6 6 5 5 4 4 3 4 3 3 2 1 1 2 3 3 2 1 1 2 3 3 3 4 5 4 8 11 12 12 12 12 12 11 11 11
6 6 7 7 7 7 7 6 6 5 5 5 4 4 4 4 3 2 2 2 1 1 2 2 2 1 1 0 1 2 3 2 4 5 7 9 10 11 11 11 11 12 11
7 7 7 7 7 7 7 6 6 6 5 4 4 4 4 5 4 4 3 3 2 1 1 1 1 1 1 1 1 1 2 2 3 2 3 4 5 8 10 10 11 11 11
7 6 6 6 6 6 7 7 6 6 5 4 4 4 4 5 6 5 3 3 3 2 2 1 1 1 1 1 2 2 2 2 3 2 2 2 2 2 4 7 10 11 11
5 5 6 6 6 5 7 9 7 6 5 5 4 4 3 4 5 6 6 5 5 4 4 3 2 2 3 3 2 2 2 1 3 2 1 3 1 3 4 4 7 10 10
5 5 5 5 5 4 6 8 8 5 5 5 5 4 3 3 3 3 4 4 4 5 6 5 4 5 4 4 3 2 3 3 4 3 1 3 2 3 4 4 7 8 8
4 4 4 4 4 4 6 7 8 5 4 4 4 4 3 3 3 3 3 2 3 3 4 4 5 5 4 4 4 4 4 2 2 2 2 2 2 3 3 3 5 7 7
3 3 3 4 4 3 5 7 6 3 2 3 2 2 3 3 4 4 3 3 2 3 4 5 5 4 4 3 3 1 1 1 2 2 1 2 2 2 3 3 4 5 5
3 3 2 2 3 2 3 5 6 3 3 2 1 1 2 3 3 4 3 3 3 4 2 1 1 2 2 3 3 3 3 2 2 2 2 1 2 1 3 3 2 2 2
Wind_Direction
156 157 165 166 174 172 167 177 181 177 156 139 143 142 143 141 150 160 169 175 173 172 170 172 171 170 170 171 170 168 168 167 168 167 166 164 161 161 161 161 161 158 156
156 156 162 170 181 181 178 178 173 161 145 137 144 154 157 150 158 166 170 182 182 181 181 179 179 180 179 179 180 178 178 176 176 176 174 175 173 171 172 173 171 169 167
157 152 156 170 184 171 165 159 140 124 129 129 140 153 153 159 165 169 169 175 187 194 190 189 187 188 189 190 190 189 187 185 184 185 184 182 182 180 181 184 183 182 181
155 148 153 173 174 153 147 146 131 114 94 112 131 153 152 160 169 173 173 180 188 195 199 198 193 192 196 199 199 198 197 195 193 194 194 193 194 194 195 198 195 195 196
156 148 156 172 158 144 148 157 131 137 132 128 148 146 152 165 173 177 183 188 192 194 197 205 198 197 202 208 207 206 204 203 202 201 203 204 205 206 207 207 205 204 205
158 150 161 171 154 138 140 135 129 124 136 152 126 95 156 180 174 180 189 186 194 198 195 202 199 207 209 210 211 211 209 207 207 208 210 212 211 208 210 212 210 208 209
162 160 165 167 159 156 169 156 134 123 115 118 83 30 354 353 205 195 186 183 198 199 190 195 194 194 208 213 215 215 215 213 209 211 214 216 215 211 212 215 216 214 214
171 173 167 172 167 157 164 158 138 135 160 135 128 105 9 347 324 230 197 196 200 191 194 198 195 199 202 197 211 216 217 216 214 213 215 216 217 216 216 219 218 217 219
178 171 169 169 171 165 176 180 160 154 167 203 150 145 151 214 292 318 255 213 193 191 202 194 197 204 201 198 204 218 219 215 216 218 218 219 219 217 217 219 220 219 219
183 176 170 171 176 173 177 190 173 160 154 178 205 179 169 160 155 288 314 281 220 207 205 203 200 204 202 196 205 207 214 214 217 220 222 224 222 220 220 223 225 222 222
188 182 175 170 175 182 185 190 172 164 164 170 180 175 142 125 145 156 243 285 281 244 216 208 199 200 202 199 203 209 212 215 219 220 223 224 222 222 224 228 230 231 231
194 192 181 177 179 182 189 194 181 173 173 172 175 170 166 167 186 174 199 233 245 260 231 215 208 204 203 202 213 213 212 215 217 220 223 224 223 225 227 233 235 236 238
196 200 189 186 187 189 188 184 175 175 177 179 186 192 189 195 180 169 172 207 238 274 260 234 220 205 206 199 214 215 214 214 216 221 223 225 228 231 231 234 237 239 242
196 192 188 190 192 189 187 175 179 187 179 187 197 192 197 214 191 180 174 163 177 302 293 261 244 211 210 200 210 207 213 214 216 220 223 226 230 232 233 235 238 239 241
190 189 189 191 195 193 186 174 183 190 182 193 199 200 208 224 201 192 179 167 162 191 255 262 257 232 207 204 209 202 210 218 219 222 227 230 234 235 236 236 236 237 240
191 185 192 192 193 190 185 177 183 190 184 199 198 197 213 220 210 191 184 180 171 171 215 248 239 240 210 210 203 200 216 223 224 227 230 234 238 239 238 235 233 234 238
188 188 191 191 192 191 188 184 192 188 193 204 208 203 219 212 198 203 188 182 182 168 197 258 252 239 197 207 191 208 221 225 232 233 235 237 239 240 239 237 235 237 238
194 193 190 191 195 194 191 190 198 196 194 203 212 206 221 210 205 212 197 204 202 186 179 217 259 241 219 214 205 216 227 225 228 238 238 240 240 241 242 241 240 241 242
195 195 191 192 195 193 192 194 194 197 198 202 205 207 217 201 210 212 198 201 210 189 165 174 228 244 254 245 192 246 244 250 239 240 237 241 243 243 244 244 243 243 244
195 197 195 193 194 195 195 193 191 195 197 203 205 207 209 200 202 201 202 205 194 172 150 159 208 247 254 260 148 229 271 263 259 261 254 246 247 247 248 247 247 245 245
196 196 194 196 194 192 198 193 194 193 191 198 207 210 213 207 203 203 205 198 182 172 162 164 195 201 242 226 220 216 233 266 270 251 258 267 253 255 253 250 249 248 245
195 190 190 193 196 204 198 192 189 188 187 192 201 213 221 213 213 212 210 198 184 183 186 188 200 208 230 223 217 212 214 230 279 264 201 264 227 251 252 242 246 245 245
185 185 190 189 191 199 189 185 184 178 184 191 194 203 220 217 203 205 217 219 222 220 202 188 199 215 216 215 202 217 216 212 233 249 187 260 262 259 260 257 250 249 247
177 175 172 175 179 195 186 184 179 175 176 187 193 199 204 215 210 196 202 210 232 247 227 210 209 221 221 216 202 204 212 224 262 277 180 238 270 265 276 272 270 261 257
163 166 166 172 178 196 189 178 169 163 171 189 199 197 197 211 226 203 187 207 247 273 258 227 221 232 243 242 205 161 184 194 268 276 226 204 260 276 281 272 275 270 265
148 144 149 162 169 177 172 171 164 155 169 186 195 205 211 211 224 202 193 198 228 252 255 260 258 278 270 275 242 200 194 196 221 263 259 197 257 286 300 287 284 291 276